Retour au catalogue

STARLINK-34839

ActifCommunicationsVLEO
NORAD 65703·PAYLOAD·🇺🇸 United States

Lancé Sep 21, 2025 depuis Cape Canaveral Space Force Station

Loading…

Prochains Passages (prochaines 24 heures)

TLE

FraisSource: CelesTrak SupGP

Époque: Sep 14, 2026, 22:51 UTC

1 65703C 25212AD  26257.95256944 -.00035288  00000+0 -11343-2 0  2577
2 65703  53.1575 185.0862 0001266 107.1127 172.2280 15.31732271    18

Suivez STARLINK-34839 en temps réel avec AllMySat

Download on the App Store